• Em Portugal
  • Lista de países
  • Para 7 dias
  • Temperatura da água
  • Mapas de satélite
  • Mapa do tempo
  • Widgets de tempo
  • user-avatar
    Iniciar Sessão

    Previsão horária em Asadabad

    Hoje, 22 Novembro, Quarta-feira

    Tempo Temperatura Precipitação Vento Pressão Humidade
    00:00 +8°C° 0 mm 3 m/s 657 mmHg 20%
    01:00 +7°C° 0 mm 3 m/s 657 mmHg 20%
    02:00 +7°C° 0 mm 3 m/s 657 mmHg 20%
    03:00 +7°C° 0 mm 3 m/s 657 mmHg 19%
    04:00 +7°C° 0 mm 3 m/s 657 mmHg 19%
    05:00 +5°C° 0 mm 3 m/s 657 mmHg 19%
    06:00 +7°C° 0 mm 3 m/s 657 mmHg 19%
    07:00 +7°C° 0 mm 3 m/s 657 mmHg 19%
    08:00 +8°C° 0 mm 3 m/s 658 mmHg 19%
    09:00 +10°C° 0 mm 2 m/s 658 mmHg 16%
    10:00 +14°C° 0 mm 2 m/s 658 mmHg 13%
    11:00 +16°C° 0 mm 1 m/s 659 mmHg 9%
    12:00 +18°C° 0 mm 1 m/s 659 mmHg 10%
    13:00 +18°C° 0 mm 1 m/s 659 mmHg 10%
    14:00 +18°C° 0 mm 2 m/s 658 mmHg 11%
    15:00 +16°C° 0 mm 1 m/s 658 mmHg 15%
    16:00 +13°C° 0 mm 1 m/s 657 mmHg 19%
    17:00 +11°C° 0 mm 1 m/s 656 mmHg 23%
    18:00 +11°C° 0 mm 1 m/s 657 mmHg 23%
    19:00 +9°C° 0 mm 2 m/s 657 mmHg 22%
    20:00 +9°C° 0 mm 2 m/s 657 mmHg 22%
    21:00 +9°C° 0 mm 2 m/s 657 mmHg 22%
    22:00 +9°C° 0 mm 2 m/s 657 mmHg 22%
    23:00 +8°C° 0 mm 2 m/s 657 mmHg 22%

    Amanhã, 23 Novembro, Quinta-feira

    Tempo Temperatura Precipitação Vento Pressão Humidade
    00:00 +8°C° 0 mm 3 m/s 657 mmHg 22%
    01:00 +8°C° 0 mm 3 m/s 656 mmHg 21%
    02:00 +8°C° 0 mm 3 m/s 656 mmHg 21%
    03:00 +8°C° 0 mm 3 m/s 656 mmHg 20%
    04:00 +8°C° 0 mm 3 m/s 655 mmHg 20%
    05:00 +7°C° 0 mm 2 m/s 655 mmHg 19%
    06:00 +8°C° 0 mm 2 m/s 656 mmHg 19%
    07:00 +9°C° 0 mm 2 m/s 656 mmHg 19%
    08:00 +9°C° 0 mm 2 m/s 656 mmHg 19%
    09:00 +12°C° 0 mm 2 m/s 657 mmHg 16%
    10:00 +14°C° 0 mm 1 m/s 657 mmHg 13%
    11:00 +18°C° 0 mm 1 m/s 658 mmHg 10%
    12:00 +18°C° 0 mm 1 m/s 658 mmHg 10%
    13:00 +18°C° 0 mm 1 m/s 658 mmHg 10%
    14:00 +18°C° 0 mm 2 m/s 658 mmHg 10%
    15:00 +16°C° 0 mm 1 m/s 657 mmHg 14%
    16:00 +14°C° 0 mm 1 m/s 657 mmHg 18%
    17:00 +12°C° 0 mm 1 m/s 656 mmHg 22%
    18:00 +12°C° 0 mm 1 m/s 657 mmHg 21%
    19:00 +11°C° 0 mm 1 m/s 657 mmHg 20%
    20:00 +9°C° 0 mm 2 m/s 657 mmHg 19%
    21:00 +9°C° 0 mm 2 m/s 657 mmHg 19%
    22:00 +9°C° 0 mm 2 m/s 657 mmHg 19%
    23:00 +9°C° 0 mm 2 m/s 657 mmHg 19%

    Depois de amanhã, 24 Novembro, Sexta-feira

    Tempo Temperatura Precipitação Vento Pressão Humidade
    00:00 +8°C° 0 mm 2 m/s 657 mmHg 19%
    01:00 +8°C° 0 mm 2 m/s 657 mmHg 19%
    02:00 +8°C° 0 mm 2 m/s 657 mmHg 19%
    03:00 +8°C° 0 mm 2 m/s 657 mmHg 19%
    04:00 +8°C° 0 mm 2 m/s 656 mmHg 19%
    05:00 +7°C° 0 mm 2 m/s 656 mmHg 19%
    06:00 +8°C° 0 mm 2 m/s 657 mmHg 19%
    07:00 +9°C° 0 mm 2 m/s 657 mmHg 19%
    08:00 +9°C° 0 mm 2 m/s 658 mmHg 19%
    09:00 +13°C° 0 mm 2 m/s 658 mmHg 16%
    10:00 +15°C° 0 mm 1 m/s 659 mmHg 14%
    11:00 +18°C° 0 mm 1 m/s 660 mmHg 11%
    12:00 +19°C° 0 mm 1 m/s 659 mmHg 12%
    13:00 +19°C° 0 mm 1 m/s 659 mmHg 12%
    14:00 +19°C° 0 mm 2 m/s 659 mmHg 12%
    15:00 +18°C° 0 mm 1 m/s 658 mmHg 16%
    16:00 +15°C° 0 mm 1 m/s 658 mmHg 20%
    17:00 +13°C° 0 mm 1 m/s 657 mmHg 23%
    18:00 +13°C° 0 mm 1 m/s 658 mmHg 23%
    19:00 +14°C° 0 mm 1 m/s 658 mmHg 22%
    20:00 +14°C° 0 mm 1 m/s 659 mmHg 21%
    21:00 +13°C° 0 mm 2 m/s 659 mmHg 22%
    22:00 +13°C° 0 mm 2 m/s 659 mmHg 24%
    23:00 +13°C° 0 mm 2 m/s 659 mmHg 25%

    25 Novembro, Sábado

    Tempo Temperatura Precipitação Vento Pressão Humidade
    00:00 +12°C° 0 mm 2 m/s 659 mmHg 26%
    01:00 +10°C° 0 mm 2 m/s 658 mmHg 28%
    02:00 +10°C° 0 mm 3 m/s 658 mmHg 29%
    03:00 +9°C° 0 mm 3 m/s 658 mmHg 30%
    04:00 +9°C° 0 mm 3 m/s 658 mmHg 30%
    05:00 +9°C° 0 mm 3 m/s 657 mmHg 31%
    06:00 +9°C° 0 mm 3 m/s 658 mmHg 31%
    07:00 +10°C° 0 mm 3 m/s 658 mmHg 31%
    08:00 +10°C° 0 mm 3 m/s 658 mmHg 30%
    09:00 +13°C° 0 mm 2 m/s 659 mmHg 27%
    10:00 +15°C° 0 mm 2 m/s 659 mmHg 23%
    11:00 +18°C° 0 mm 1 m/s 660 mmHg 19%
    12:00 +18°C° 0 mm 2 m/s 659 mmHg 19%
    13:00 +18°C° 0 mm 2 m/s 659 mmHg 19%
    14:00 +19°C° 0 mm 2 m/s 659 mmHg 19%
    15:00 +17°C° 0 mm 2 m/s 659 mmHg 23%
    16:00 +16°C° 0 mm 2 m/s 658 mmHg 26%
    17:00 +15°C° 0 mm 2 m/s 658 mmHg 30%
    18:00 +14°C° 0,1 mm 2 m/s 659 mmHg 34%
    19:00 +14°C° 0,1 mm 2 m/s 659 mmHg 38%
    20:00 +13°C° 0,1 mm 2 m/s 659 mmHg 42%
    21:00 +12°C° 0,2 mm 3 m/s 659 mmHg 46%
    22:00 +11°C° 0,2 mm 3 m/s 659 mmHg 51%
    23:00 +11°C° 0,2 mm 3 m/s 659 mmHg 55%

    26 Novembro, Domingo

    Tempo Temperatura Precipitação Vento Pressão Humidade
    00:00 +10°C° 0,1 mm 3 m/s 659 mmHg 57%
    01:00 +10°C° 0,1 mm 2 m/s 659 mmHg 58%
    02:00 +10°C° 0,1 mm 2 m/s 659 mmHg 59%
    03:00 +9°C° 0 mm 2 m/s 659 mmHg 60%
    04:00 +9°C° 0 mm 2 m/s 659 mmHg 60%
    05:00 +8°C° 0 mm 2 m/s 659 mmHg 61%
    06:00 +9°C° 0 mm 2 m/s 660 mmHg 59%
    07:00 +9°C° 0 mm 2 m/s 660 mmHg 57%
    08:00 +9°C° 0 mm 2 m/s 661 mmHg 54%
    09:00 +12°C° 0 mm 2 m/s 661 mmHg 49%
    10:00 +14°C° 0 mm 2 m/s 661 mmHg 44%
    11:00 +15°C° 0 mm 2 m/s 662 mmHg 39%
    12:00 +16°C° 0 mm 2 m/s 661 mmHg 38%
    13:00 +16°C° 0 mm 2 m/s 661 mmHg 36%
    14:00 +17°C° 0 mm 2 m/s 660 mmHg 35%
    15:00 +15°C° 0 mm 1 m/s 660 mmHg 39%
    16:00 +14°C° 0 mm 1 m/s 660 mmHg 43%
    17:00 +13°C° 0 mm 1 m/s 659 mmHg 47%
    18:00 +12°C° 0 mm 1 m/s 660 mmHg 46%
    19:00 +12°C° 0 mm 2 m/s 660 mmHg 46%
    20:00 +10°C° 0 mm 2 m/s 660 mmHg 46%
    21:00 +10°C° 0 mm 2 m/s 660 mmHg 45%
    22:00 +10°C° 0 mm 2 m/s 660 mmHg 44%
    23:00 +9°C° 0 mm 3 m/s 660 mmHg 43%

    27 Novembro, Segunda-feira

    Tempo Temperatura Precipitação Vento Pressão Humidade
    00:00 +9°C° 0 mm 3 m/s 659 mmHg 42%
    01:00 +9°C° 0 mm 3 m/s 659 mmHg 41%
    02:00 +9°C° 0 mm 3 m/s 659 mmHg 40%
    03:00 +8°C° 0 mm 3 m/s 658 mmHg 39%
    04:00 +8°C° 0 mm 3 m/s 658 mmHg 38%
    05:00 +8°C° 0 mm 3 m/s 658 mmHg 36%
    06:00 +8°C° 0 mm 3 m/s 658 mmHg 35%
    07:00 +9°C° 0 mm 3 m/s 658 mmHg 33%
    08:00 +9°C° 0 mm 3 m/s 659 mmHg 31%
    09:00 +12°C° 0 mm 2 m/s 659 mmHg 27%
    10:00 +14°C° 0 mm 2 m/s 659 mmHg 23%
    11:00 +18°C° 0 mm 1 m/s 659 mmHg 20%
    12:00 +18°C° 0 mm 1 m/s 659 mmHg 20%
    13:00 +18°C° 0 mm 2 m/s 659 mmHg 20%
    14:00 +18°C° 0 mm 2 m/s 658 mmHg 20%
    15:00 +16°C° 0 mm 1 m/s 658 mmHg 25%
    16:00 +15°C° 0 mm 1 m/s 657 mmHg 29%
    17:00 +13°C° 0 mm 1 m/s 657 mmHg 33%
    18:00 +13°C° 0 mm 1 m/s 657 mmHg 33%
    19:00 +12°C° 0 mm 1 m/s 657 mmHg 33%
    20:00 +12°C° 0 mm 1 m/s 658 mmHg 33%
    21:00 +10°C° 0 mm 2 m/s 658 mmHg 33%
    22:00 +10°C° 0 mm 2 m/s 658 mmHg 32%
    23:00 +10°C° 0 mm 2 m/s 658 mmHg 32%
    Mostrar mais